Williston, ND

9:38 PM CDT on March 29, 2015 (GMT -0500)
Valhalla | | Change Station
CLOSE
Current Station
Personal Weather Station
Location: Williston, ND
Elevation: 2040 ft
Nearby Weather Stations

Elev 2040 ft 48.33 °N, 103.62 °W | Updated 1 minute ago

Partly Cloudy
Partly Cloudy
46.2 °F
Feels Like 42 °F
N
7.4
Wind Variable Wind from West
Gusts 9.6 mph

Today
High -- | Low -- °F
--% Chance of Precip.
Yesterday
High -- | Low -- °F
Precip. -- in
7:39 AM 8:20 PM
Waxing Gibbous, 76% visible
Pressure 29.94 in
Visibility 10.0 miles
Clouds Clear
Windchill 42 °F
Dew Point 34 °F
Humidity 62%
Rainfall 0.04 in
Snow Depth Not available.
UV 0 out of 12
Pollen 4.70 out of 12
Air Quality Not available.
Flu Activity Not available.
METAR KISN 300152Z AUTO 24006KT 10SM CLR 09/01 A2991 RMK AO2 SLP139 T00940011

More Conditions Fewer Conditions

Pressure 29.94 in
Visibility 10.0 miles
Clouds Clear
Windchill 42 °F
Dew Point 34 °F
Humidity 62%
Rainfall 0.04 in
Snow Depth Not available.
UV 0 out of 12
Pollen 4.70 out of 12
Air Quality Not available.
Flu Activity Not available.
METAR KISN 300152Z AUTO 24006KT 10SM CLR 09/01 A2991 RMK AO2 SLP139 T00940011

More Conditions Fewer Conditions

10-Day Weather Forecast

Almanac

Astronomy

Mar. 29, 2015 Rise Set
Actual Time
Civil Twilight
Nautical Twilight
Astronomical Twilight
Moon
Length of Visible Light
Length of Day
Tomorrow will be .
, % of the Moon is Illuminated

Today's Extremes

State Highs State Lows

Community

WunderPhotos

Upload Photos

1,809,414 photos uploaded!

WunderBlogs® & News

Nearby

Air Quality

  Air Quality AQ Index Pollutant
Not available.

Snow Depth

Station Depth Elevation

Earthquake Activity

City Distance Mag. Time & Date
Minimum magnitude displayed is 2.5.

Coastal Water Temperatures

Place Temperature

Stations

Nearby Weather Stations

Station Location Temp. Windchill Dew Point Humidity Wind Precip. Elev Updated Type